Back to catalog

STARLINK-5576

AliveCommunicationsVLEO
NORAD 55382·PAYLOAD·🇺🇸 United States

Launched Jan 26, 2023 from Cape Canaveral Space Force Station

Loading…

Next Passes (next 24 hours)

TLE

FreshSource: CelesTrak SupGP

Epoch: Sep 14, 2026, 20:42 UTC

1 55382C 23013BD  26257.86298611 -.00057408  00000+0 -20789-2 0  2575
2 55382  43.0038 329.9717 0001939 271.7340  41.7030 15.27612302    12

Track STARLINK-5576 in real time with AllMySat

Download on the App Store